Year,Month,Day,Hour,Minute,Value (Times are PST for windspeed in km/hr)
2011,07,08,00,00,10.80
2011,07,08,00,01,13.00
2011,07,08,00,02,12.20
2011,07,08,00,03,13.50
2011,07,08,00,04,14.50
2011,07,08,00,05,14.80
2011,07,08,00,06,11.30
2011,07,08,00,07,11.00
2011,07,08,00,08,11.60
2011,07,08,00,09,17.20
2011,07,08,00,10,13.80
2011,07,08,00,11,10.10
2011,07,08,00,12,15.70
2011,07,08,00,13,14.80
2011,07,08,00,14,13.70
2011,07,08,00,15,13.60
2011,07,08,00,16,17.90
2011,07,08,00,17,18.00
2011,07,08,00,18,14.90
2011,07,08,00,19,11.60
2011,07,08,00,20,13.40
2011,07,08,00,21,14.70
2011,07,08,00,22,15.50
2011,07,08,00,23,16.90
2011,07,08,00,24,16.30
2011,07,08,00,25,15.30
2011,07,08,00,26,16.20
2011,07,08,00,27,17.90
2011,07,08,00,28,17.20
2011,07,08,00,29,16.20
2011,07,08,00,30,17.10
2011,07,08,00,31,20.00
2011,07,08,00,32,16.30
2011,07,08,00,33,19.00
2011,07,08,00,34,18.30
2011,07,08,00,35,20.00
2011,07,08,00,36,18.70
2011,07,08,00,37,14.10
2011,07,08,00,38,20.00
2011,07,08,00,39,21.60
2011,07,08,00,40,19.10
2011,07,08,00,41,21.90
2011,07,08,00,42,14.80
2011,07,08,00,43,17.90
2011,07,08,00,44,16.90
2011,07,08,00,45,16.40
2011,07,08,00,46,18.40
2011,07,08,00,47,11.10
2011,07,08,00,48,16.70
2011,07,08,00,49,18.40
2011,07,08,00,50,12.60
2011,07,08,00,51,8.60
2011,07,08,00,52,15.10
2011,07,08,00,53,12.60
2011,07,08,00,54,12.40
2011,07,08,00,55,14.60
2011,07,08,00,56,13.60
2011,07,08,00,57,12.00
2011,07,08,00,58,10.10
2011,07,08,00,59,10.90
2011,07,08,01,00,12.50
2011,07,08,01,01,12.60
2011,07,08,01,02,12.70
2011,07,08,01,03,8.00
2011,07,08,01,04,9.30
2011,07,08,01,05,10.30
2011,07,08,01,06,13.70
2011,07,08,01,07,20.00
2011,07,08,01,08,16.90
2011,07,08,01,09,16.70
2011,07,08,01,10,14.50
2011,07,08,01,11,16.50
2011,07,08,01,12,19.70
2011,07,08,01,13,16.40
2011,07,08,01,14,9.70
2011,07,08,01,15,14.70
2011,07,08,01,16,16.20
2011,07,08,01,17,17.50
2011,07,08,01,18,15.40
2011,07,08,01,19,16.50
2011,07,08,01,20,13.60
2011,07,08,01,21,15.30
2011,07,08,01,22,16.30
2011,07,08,01,23,17.30
2011,07,08,01,24,15.70
2011,07,08,01,25,17.40
2011,07,08,01,26,15.80
2011,07,08,01,27,12.60
2011,07,08,01,28,16.50
2011,07,08,01,29,16.40
2011,07,08,01,30,17.30
2011,07,08,01,31,15.30
2011,07,08,01,32,14.20
2011,07,08,01,33,18.90
2011,07,08,01,34,15.00
2011,07,08,01,35,17.10
2011,07,08,01,36,14.30
2011,07,08,01,37,13.70
2011,07,08,01,38,17.50
2011,07,08,01,39,14.70
2011,07,08,01,40,17.10
2011,07,08,01,41,15.40
2011,07,08,01,42,10.30
2011,07,08,01,43,7.90
2011,07,08,01,44,11.30
2011,07,08,01,45,12.70
2011,07,08,01,46,12.10
2011,07,08,01,47,9.40
2011,07,08,01,48,11.80
2011,07,08,01,49,10.90
2011,07,08,01,50,15.20
2011,07,08,01,51,16.70
2011,07,08,01,52,13.50
2011,07,08,01,53,15.20
2011,07,08,01,54,15.90
2011,07,08,01,55,15.50
2011,07,08,01,56,11.40
2011,07,08,01,57,11.10
2011,07,08,01,58,11.20
2011,07,08,01,59,12.60
2011,07,08,02,00,14.90
2011,07,08,02,01,12.40
2011,07,08,02,02,12.70
2011,07,08,02,03,9.70
2011,07,08,02,04,10.10
2011,07,08,02,05,12.90
2011,07,08,02,06,9.20
2011,07,08,02,07,8.20
2011,07,08,02,08,13.80
2011,07,08,02,09,9.20
2011,07,08,02,10,9.30
2011,07,08,02,11,10.60
2011,07,08,02,12,11.40
2011,07,08,02,13,12.90
2011,07,08,02,14,13.80
2011,07,08,02,15,9.80
2011,07,08,02,16,16.50
2011,07,08,02,17,13.00
2011,07,08,02,18,14.50
2011,07,08,02,19,15.50
2011,07,08,02,20,16.10
2011,07,08,02,21,14.80
2011,07,08,02,22,13.80
2011,07,08,02,23,10.80
2011,07,08,02,24,16.40
2011,07,08,02,25,15.00
2011,07,08,02,26,15.00
2011,07,08,02,27,10.70
2011,07,08,02,28,11.30
2011,07,08,02,29,14.10
2011,07,08,02,30,9.60
2011,07,08,02,31,10.00
2011,07,08,02,32,8.90
2011,07,08,02,33,9.70
2011,07,08,02,34,8.60
2011,07,08,02,35,9.80
2011,07,08,02,36,12.40
2011,07,08,02,37,11.20
2011,07,08,02,38,10.80
2011,07,08,02,39,15.30
2011,07,08,02,40,13.40
2011,07,08,02,41,15.80
2011,07,08,02,42,12.00
2011,07,08,02,43,13.30
2011,07,08,02,44,15.70
2011,07,08,02,45,12.60
2011,07,08,02,46,16.90
2011,07,08,02,47,11.30
2011,07,08,02,48,18.70
2011,07,08,02,49,13.10
2011,07,08,02,50,10.80
2011,07,08,02,51,12.20
2011,07,08,02,52,12.90
2011,07,08,02,53,9.50
2011,07,08,02,54,13.20
2011,07,08,02,55,12.00
2011,07,08,02,56,15.50
2011,07,08,02,57,11.80
2011,07,08,02,58,9.10
2011,07,08,02,59,14.20
2011,07,08,03,00,13.40
2011,07,08,03,01,12.80
2011,07,08,03,02,11.40
2011,07,08,03,03,8.30
2011,07,08,03,04,13.00
2011,07,08,03,05,10.90
2011,07,08,03,06,7.00
2011,07,08,03,07,8.30
2011,07,08,03,08,7.20
2011,07,08,03,09,8.10
2011,07,08,03,10,10.10
2011,07,08,03,11,8.10
2011,07,08,03,12,9.60
2011,07,08,03,13,10.30
2011,07,08,03,14,12.00
2011,07,08,03,15,11.70
2011,07,08,03,16,8.80
2011,07,08,03,17,7.10
2011,07,08,03,18,8.90
2011,07,08,03,19,9.70
2011,07,08,03,20,13.60
2011,07,08,03,21,9.60
2011,07,08,03,22,9.30
2011,07,08,03,23,12.80
2011,07,08,03,24,10.70
2011,07,08,03,25,10.40
2011,07,08,03,26,10.80
2011,07,08,03,27,12.10
2011,07,08,03,28,16.90
2011,07,08,03,29,17.10
2011,07,08,03,30,16.30
2011,07,08,03,31,16.10
2011,07,08,03,32,11.10
2011,07,08,03,33,11.40
2011,07,08,03,34,13.00
2011,07,08,03,35,15.80
2011,07,08,03,36,10.90
2011,07,08,03,37,13.60
2011,07,08,03,38,11.00
2011,07,08,03,39,16.90
2011,07,08,03,40,17.90
2011,07,08,03,41,15.90
2011,07,08,03,42,11.60
2011,07,08,03,43,12.70
2011,07,08,03,44,11.40
2011,07,08,03,45,13.40
2011,07,08,03,46,12.70
2011,07,08,03,47,14.10
2011,07,08,03,48,14.60
2011,07,08,03,49,9.70
2011,07,08,03,50,8.00
2011,07,08,03,51,14.80
2011,07,08,03,52,18.80
2011,07,08,03,53,11.70
2011,07,08,03,54,11.30
2011,07,08,03,55,8.90
2011,07,08,03,56,8.60
2011,07,08,03,57,11.10
2011,07,08,03,58,8.80
2011,07,08,03,59,10.00
2011,07,08,04,00,13.40
2011,07,08,04,01,12.00
2011,07,08,04,02,17.50
2011,07,08,04,03,19.90
2011,07,08,04,04,15.80
2011,07,08,04,05,10.70
2011,07,08,04,06,12.60
2011,07,08,04,07,16.30
2011,07,08,04,08,12.70
2011,07,08,04,09,14.30
2011,07,08,04,10,18.90
2011,07,08,04,11,16.40
2011,07,08,04,12,10.20
2011,07,08,04,13,9.60
2011,07,08,04,14,12.50
2011,07,08,04,15,13.50
2011,07,08,04,16,16.20
2011,07,08,04,17,11.20
2011,07,08,04,18,16.00
2011,07,08,04,19,16.00
2011,07,08,04,20,17.50
2011,07,08,04,21,18.00
2011,07,08,04,22,15.30
2011,07,08,04,23,23.60
2011,07,08,04,24,13.00
2011,07,08,04,25,15.20
2011,07,08,04,26,16.90
2011,07,08,04,27,20.00
2011,07,08,04,28,17.20
2011,07,08,04,29,14.10
2011,07,08,04,30,13.30
2011,07,08,04,31,15.60
2011,07,08,04,32,9.50
2011,07,08,04,33,10.00
2011,07,08,04,34,10.20
2011,07,08,04,35,17.70
2011,07,08,04,36,13.00
2011,07,08,04,37,18.70
2011,07,08,04,38,16.60
2011,07,08,04,39,14.30
2011,07,08,04,40,17.70
2011,07,08,04,41,15.80
2011,07,08,04,42,14.10
2011,07,08,04,43,10.70
2011,07,08,04,44,16.20
2011,07,08,04,45,13.20
2011,07,08,04,46,19.40
2011,07,08,04,47,15.10
2011,07,08,04,48,21.80
2011,07,08,04,49,19.70
2011,07,08,04,50,15.00
2011,07,08,04,51,15.40
2011,07,08,04,52,16.90
2011,07,08,04,53,12.80
2011,07,08,04,54,13.00
2011,07,08,04,55,20.00
2011,07,08,04,56,19.20
2011,07,08,04,57,14.10
2011,07,08,04,58,16.80
2011,07,08,04,59,16.20
2011,07,08,05,00,12.10
2011,07,08,05,01,15.50
2011,07,08,05,02,18.70
2011,07,08,05,03,16.80
2011,07,08,05,04,17.00
2011,07,08,05,05,14.80
2011,07,08,05,06,22.00
2011,07,08,05,07,16.70
2011,07,08,05,08,13.10
2011,07,08,05,09,14.70
2011,07,08,05,10,18.80
2011,07,08,05,11,17.30
2011,07,08,05,12,15.70
2011,07,08,05,13,15.20
2011,07,08,05,14,17.50
2011,07,08,05,15,14.60
2011,07,08,05,16,17.10
2011,07,08,05,17,15.10
2011,07,08,05,18,15.40
2011,07,08,05,19,12.50
2011,07,08,05,20,23.20
2011,07,08,05,21,15.00
2011,07,08,05,22,17.10
2011,07,08,05,23,13.20
2011,07,08,05,24,14.60
2011,07,08,05,25,15.50
2011,07,08,05,26,12.70
2011,07,08,05,27,15.00
2011,07,08,05,28,13.50
2011,07,08,05,29,23.70
2011,07,08,05,30,15.80
2011,07,08,05,31,20.30
2011,07,08,05,32,22.80
2011,07,08,05,33,15.70
2011,07,08,05,34,17.80
2011,07,08,05,35,21.10
2011,07,08,05,36,15.70
2011,07,08,05,37,13.40
2011,07,08,05,38,13.70
2011,07,08,05,39,14.70
2011,07,08,05,40,14.50
2011,07,08,05,41,13.60
2011,07,08,05,42,14.30
2011,07,08,05,43,12.20
2011,07,08,05,44,15.90
2011,07,08,05,45,14.90
2011,07,08,05,46,7.20
2011,07,08,05,47,8.70
2011,07,08,05,48,14.50
2011,07,08,05,49,15.70
2011,07,08,05,50,15.20
2011,07,08,05,51,14.60
2011,07,08,05,52,13.10
2011,07,08,05,53,10.70
2011,07,08,05,54,10.80
2011,07,08,05,55,12.20
2011,07,08,05,56,13.00
2011,07,08,05,57,16.30
2011,07,08,05,58,16.00
2011,07,08,05,59,12.10
2011,07,08,06,00,17.70
2011,07,08,06,01,14.10
2011,07,08,06,02,12.70
2011,07,08,06,03,16.90
2011,07,08,06,04,16.60
2011,07,08,06,05,14.20
2011,07,08,06,06,10.20
2011,07,08,06,07,13.60
2011,07,08,06,08,10.70
2011,07,08,06,09,8.30
2011,07,08,06,10,7.70
2011,07,08,06,11,10.90
2011,07,08,06,12,10.70
2011,07,08,06,13,13.10
2011,07,08,06,14,18.20
2011,07,08,06,15,10.10
2011,07,08,06,16,8.30
2011,07,08,06,17,6.10
2011,07,08,06,18,6.90
2011,07,08,06,19,7.60
2011,07,08,06,20,13.90
2011,07,08,06,21,10.20
2011,07,08,06,22,7.00
2011,07,08,06,23,9.90
2011,07,08,06,24,10.90
2011,07,08,06,25,9.40
2011,07,08,06,26,8.00
2011,07,08,06,27,8.50
2011,07,08,06,28,5.60
2011,07,08,06,29,6.50
2011,07,08,06,30,2.70
2011,07,08,06,31,3.60
2011,07,08,06,32,3.80
2011,07,08,06,33,0.30
2011,07,08,06,34,1.50
2011,07,08,06,35,2.70
2011,07,08,06,36,3.90
2011,07,08,06,37,1.10
2011,07,08,06,38,4.00
2011,07,08,06,39,12.30
2011,07,08,06,40,8.60
2011,07,08,06,41,1.40
2011,07,08,06,42,3.10
2011,07,08,06,43,9.40
2011,07,08,06,44,4.90
2011,07,08,06,45,10.90
2011,07,08,06,46,6.80
2011,07,08,06,47,7.90
2011,07,08,06,48,6.60
2011,07,08,06,49,6.40
2011,07,08,06,50,7.90
2011,07,08,06,51,6.90
2011,07,08,06,52,4.60
2011,07,08,06,53,4.30
2011,07,08,06,54,5.10
2011,07,08,06,55,4.50
2011,07,08,06,56,4.30
2011,07,08,06,57,0.70
2011,07,08,06,58,3.00
2011,07,08,06,59,4.20
2011,07,08,07,00,4.10
2011,07,08,07,01,2.90
2011,07,08,07,02,2.50
2011,07,08,07,03,4.00
2011,07,08,07,04,1.00
2011,07,08,07,05,5.20
2011,07,08,07,06,0.60
2011,07,08,07,07,2.90
2011,07,08,07,08,4.90
2011,07,08,07,09,4.70
2011,07,08,07,10,3.50
2011,07,08,07,11,5.60
2011,07,08,07,12,2.80
2011,07,08,07,13,4.20
2011,07,08,07,14,5.30
2011,07,08,07,15,3.40
2011,07,08,07,16,6.40
2011,07,08,07,17,7.30
2011,07,08,07,18,5.60
2011,07,08,07,19,3.50
2011,07,08,07,20,6.40
2011,07,08,07,21,7.50
2011,07,08,07,22,7.30
2011,07,08,07,23,7.80
2011,07,08,07,24,5.30
2011,07,08,07,25,0.40
2011,07,08,07,26,0.90
2011,07,08,07,27,3.60
2011,07,08,07,28,3.60
2011,07,08,07,29,7.10
2011,07,08,07,30,10.20
2011,07,08,07,31,4.30
2011,07,08,07,32,2.60
2011,07,08,07,33,0.20
2011,07,08,07,34,0.00
2011,07,08,07,35,1.60
2011,07,08,07,36,2.00
2011,07,08,07,37,4.30
2011,07,08,07,38,0.70
2011,07,08,07,39,0.20
2011,07,08,07,40,0.00
2011,07,08,07,41,0.00
2011,07,08,07,42,0.00
2011,07,08,07,43,0.10
2011,07,08,07,44,0.20
2011,07,08,07,45,0.00
2011,07,08,07,46,0.00
2011,07,08,07,47,0.00
2011,07,08,07,48,1.90
2011,07,08,07,49,4.40
2011,07,08,07,50,4.30
2011,07,08,07,51,2.10
2011,07,08,07,52,6.10
2011,07,08,07,53,6.70
2011,07,08,07,54,5.80
2011,07,08,07,55,3.40
2011,07,08,07,56,0.30
2011,07,08,07,57,2.50
2011,07,08,07,58,5.90
2011,07,08,07,59,7.40
2011,07,08,08,00,6.60
2011,07,08,08,01,5.80
2011,07,08,08,02,5.30
2011,07,08,08,03,6.00
2011,07,08,08,04,7.20
2011,07,08,08,05,5.80
2011,07,08,08,06,4.00
2011,07,08,08,07,6.00
2011,07,08,08,08,6.00
2011,07,08,08,09,8.30
2011,07,08,08,10,5.10
2011,07,08,08,11,7.50
2011,07,08,08,12,6.40
2011,07,08,08,13,8.10
2011,07,08,08,14,10.60
2011,07,08,08,15,14.70
2011,07,08,08,16,13.40
2011,07,08,08,17,9.60
2011,07,08,08,18,9.30
2011,07,08,08,19,7.30
2011,07,08,08,20,6.00
2011,07,08,08,21,7.50
2011,07,08,08,22,7.60
2011,07,08,08,23,4.00
2011,07,08,08,24,4.70
2011,07,08,08,25,8.10
2011,07,08,08,26,3.10
2011,07,08,08,27,3.40
2011,07,08,08,28,5.40
2011,07,08,08,29,8.50
2011,07,08,08,30,11.50
2011,07,08,08,31,5.80
2011,07,08,08,32,8.00
2011,07,08,08,33,4.80
2011,07,08,08,34,1.60
2011,07,08,08,35,2.40
2011,07,08,08,36,1.80
2011,07,08,08,37,6.80
2011,07,08,08,38,8.30
2011,07,08,08,39,6.90
2011,07,08,08,40,6.40
2011,07,08,08,41,8.40
2011,07,08,08,42,5.70
2011,07,08,08,43,3.00
2011,07,08,08,44,0.60
2011,07,08,08,45,0.90
2011,07,08,08,46,4.00
2011,07,08,08,47,5.70
2011,07,08,08,48,8.90
2011,07,08,08,49,7.20
2011,07,08,08,50,3.10
2011,07,08,08,51,0.70
2011,07,08,08,52,4.90
2011,07,08,08,53,5.60
2011,07,08,08,54,4.90
2011,07,08,08,55,3.10
2011,07,08,08,56,5.40
2011,07,08,08,57,6.10
2011,07,08,08,58,2.50
2011,07,08,08,59,2.20
2011,07,08,09,00,4.10
2011,07,08,09,01,3.10
2011,07,08,09,02,2.30
2011,07,08,09,03,7.20
2011,07,08,09,04,16.10
2011,07,08,09,05,7.10
2011,07,08,09,06,2.30
2011,07,08,09,07,1.80
2011,07,08,09,08,1.60
2011,07,08,09,09,0.20
2011,07,08,09,10,0.30
2011,07,08,09,11,5.10
2011,07,08,09,12,4.00
2011,07,08,09,13,6.00
2011,07,08,09,14,3.70
2011,07,08,09,15,6.60
2011,07,08,09,16,6.60
2011,07,08,09,17,7.20
2011,07,08,09,18,2.90
2011,07,08,09,19,0.20
2011,07,08,09,20,3.10
2011,07,08,09,21,2.50
2011,07,08,09,22,2.30
2011,07,08,09,23,8.60
2011,07,08,09,24,6.70
2011,07,08,09,25,6.40
2011,07,08,09,26,8.90
2011,07,08,09,27,12.30
2011,07,08,09,28,13.00
2011,07,08,09,29,10.00
2011,07,08,09,30,10.70
2011,07,08,09,31,8.50
2011,07,08,09,32,9.80
2011,07,08,09,33,5.90
2011,07,08,09,34,15.80
2011,07,08,09,35,9.50
2011,07,08,09,36,5.30
2011,07,08,09,37,7.60
2011,07,08,09,38,10.30
2011,07,08,09,39,15.90
2011,07,08,09,40,12.30
2011,07,08,09,41,10.30
2011,07,08,09,42,9.70
2011,07,08,09,43,7.30
2011,07,08,09,44,8.50
2011,07,08,09,45,12.50
2011,07,08,09,46,12.00
2011,07,08,09,47,15.00
2011,07,08,09,48,14.50
2011,07,08,09,49,9.50
2011,07,08,09,50,10.00
2011,07,08,09,51,12.60
2011,07,08,09,52,15.10
2011,07,08,09,53,11.70
2011,07,08,09,54,9.20
2011,07,08,09,55,1.50
2011,07,08,09,56,7.00
2011,07,08,09,57,2.60
2011,07,08,09,58,9.30
2011,07,08,09,59,13.80
2011,07,08,10,00,12.20
2011,07,08,10,01,15.40
2011,07,08,10,02,11.40
2011,07,08,10,03,11.90
2011,07,08,10,04,7.80
2011,07,08,10,05,9.10
2011,07,08,10,06,12.60
2011,07,08,10,07,12.30
2011,07,08,10,08,7.00
2011,07,08,10,09,4.50
2011,07,08,10,10,5.60
2011,07,08,10,11,10.00
2011,07,08,10,12,8.00
2011,07,08,10,13,5.40
2011,07,08,10,14,6.90
2011,07,08,10,15,8.20
2011,07,08,10,16,9.80
2011,07,08,10,17,10.10
2011,07,08,10,18,6.90
2011,07,08,10,19,8.10
2011,07,08,10,20,7.20
2011,07,08,10,21,12.70
2011,07,08,10,22,11.60
2011,07,08,10,23,10.80
2011,07,08,10,24,8.60
2011,07,08,10,25,17.10
2011,07,08,10,26,16.70
2011,07,08,10,27,11.60
2011,07,08,10,28,11.70
2011,07,08,10,29,17.30
2011,07,08,10,30,10.20
2011,07,08,10,31,13.40
2011,07,08,10,32,12.20
2011,07,08,10,33,7.00
2011,07,08,10,34,16.70
2011,07,08,10,35,13.80
2011,07,08,10,36,9.80
2011,07,08,10,37,8.70
2011,07,08,10,38,9.20
2011,07,08,10,39,12.90
2011,07,08,10,40,8.40
2011,07,08,10,41,6.90
2011,07,08,10,42,9.30
2011,07,08,10,43,15.10
2011,07,08,10,44,16.60
2011,07,08,10,45,17.30
2011,07,08,10,46,18.40
2011,07,08,10,47,10.20
2011,07,08,10,48,12.20
2011,07,08,10,49,11.20
2011,07,08,10,50,10.70
2011,07,08,10,51,18.10
2011,07,08,10,52,17.70
2011,07,08,10,53,15.90
2011,07,08,10,54,11.10
2011,07,08,10,55,9.60
2011,07,08,10,56,10.50
2011,07,08,10,57,14.10
2011,07,08,10,58,17.40
2011,07,08,10,59,12.00
2011,07,08,11,00,16.40
2011,07,08,11,01,11.10
2011,07,08,11,02,12.80
2011,07,08,11,03,16.70
2011,07,08,11,04,16.10
2011,07,08,11,05,18.20
2011,07,08,11,06,13.50
2011,07,08,11,07,7.20
2011,07,08,11,08,21.30
2011,07,08,11,09,16.60
2011,07,08,11,10,13.00
2011,07,08,11,11,8.60
2011,07,08,11,12,6.30
2011,07,08,11,13,9.30
2011,07,08,11,14,18.50
2011,07,08,11,15,13.70
2011,07,08,11,16,12.20
2011,07,08,11,17,8.30
2011,07,08,11,18,13.40
2011,07,08,11,19,11.80
2011,07,08,11,20,20.80
2011,07,08,11,21,16.90
2011,07,08,11,22,15.20
2011,07,08,11,23,17.10
2011,07,08,11,24,17.00
2011,07,08,11,25,14.60
2011,07,08,11,26,17.80
2011,07,08,11,27,18.00
2011,07,08,11,28,13.20
2011,07,08,11,29,15.80
2011,07,08,11,30,8.80
2011,07,08,11,31,8.30
2011,07,08,11,32,14.50
2011,07,08,11,33,17.30
2011,07,08,11,34,12.50
2011,07,08,11,35,14.60
2011,07,08,11,36,14.00
2011,07,08,11,37,9.30
2011,07,08,11,38,7.40
2011,07,08,11,39,6.50
2011,07,08,11,40,7.90
2011,07,08,11,41,9.20
2011,07,08,11,42,11.70
2011,07,08,11,43,12.40
2011,07,08,11,44,11.50
2011,07,08,11,45,12.30
2011,07,08,11,46,15.50
2011,07,08,11,47,10.20
2011,07,08,11,48,7.50
2011,07,08,11,49,3.40
2011,07,08,11,50,1.30
2011,07,08,11,51,3.30
2011,07,08,11,52,15.70
2011,07,08,11,53,13.90
2011,07,08,11,54,10.60
2011,07,08,11,55,5.10
2011,07,08,11,56,5.60
2011,07,08,11,57,8.40
2011,07,08,11,58,7.90
2011,07,08,11,59,10.40
2011,07,08,12,00,11.40
2011,07,08,12,01,9.40
2011,07,08,12,02,13.20
2011,07,08,12,03,11.80
2011,07,08,12,04,11.00
2011,07,08,12,05,12.60
2011,07,08,12,06,8.50
2011,07,08,12,07,7.10
2011,07,08,12,08,7.00
2011,07,08,12,09,9.70
2011,07,08,12,10,9.30
2011,07,08,12,11,10.80
2011,07,08,12,12,10.00
2011,07,08,12,13,9.80
2011,07,08,12,14,10.60
2011,07,08,12,15,15.10
2011,07,08,12,16,12.00
2011,07,08,12,17,12.50
2011,07,08,12,18,8.40
2011,07,08,12,19,8.60
2011,07,08,12,20,13.20
2011,07,08,12,21,12.80
2011,07,08,12,22,13.00
2011,07,08,12,23,14.40
2011,07,08,12,24,13.80
2011,07,08,12,25,10.10
2011,07,08,12,26,10.80
2011,07,08,12,27,14.30
2011,07,08,12,28,12.50
2011,07,08,12,29,9.40
2011,07,08,12,30,14.00
2011,07,08,12,31,12.90
2011,07,08,12,32,14.70
2011,07,08,12,33,10.30
2011,07,08,12,34,10.20
2011,07,08,12,35,9.30
2011,07,08,12,36,9.70
2011,07,08,12,37,7.90
2011,07,08,12,38,8.40
2011,07,08,12,39,8.00
2011,07,08,12,40,3.70
2011,07,08,12,41,11.30
2011,07,08,12,42,12.90
2011,07,08,12,43,9.40
2011,07,08,12,44,5.70
2011,07,08,12,45,10.10
2011,07,08,12,46,16.30
2011,07,08,12,47,9.70
2011,07,08,12,48,16.90
2011,07,08,12,49,12.80
2011,07,08,12,50,10.20
2011,07,08,12,51,8.10
2011,07,08,12,52,12.30
2011,07,08,12,53,14.20
2011,07,08,12,54,10.10
2011,07,08,12,55,7.60
2011,07,08,12,56,11.10
2011,07,08,12,57,7.60
2011,07,08,12,58,7.40
2011,07,08,12,59,10.40
2011,07,08,13,00,9.00
2011,07,08,13,01,8.90
2011,07,08,13,02,8.00
2011,07,08,13,03,6.00
2011,07,08,13,04,4.70
2011,07,08,13,05,15.20
2011,07,08,13,06,7.10
2011,07,08,13,07,13.00
2011,07,08,13,08,12.20
2011,07,08,13,09,12.20
2011,07,08,13,10,12.80
2011,07,08,13,11,14.20
2011,07,08,13,12,11.30
2011,07,08,13,13,13.60
2011,07,08,13,14,17.90
2011,07,08,13,15,11.40
2011,07,08,13,16,11.30
2011,07,08,13,17,9.30
2011,07,08,13,18,7.80
2011,07,08,13,19,8.90
2011,07,08,13,20,8.60
2011,07,08,13,21,10.00
2011,07,08,13,22,14.80
2011,07,08,13,23,8.60
2011,07,08,13,24,9.50
2011,07,08,13,25,11.90
2011,07,08,13,26,14.30
2011,07,08,13,27,18.30
2011,07,08,13,28,10.70
2011,07,08,13,29,11.80
2011,07,08,13,30,16.70
2011,07,08,13,31,16.20
2011,07,08,13,32,10.50
2011,07,08,13,33,13.20
2011,07,08,13,34,17.20
2011,07,08,13,35,11.00
2011,07,08,13,36,11.70
2011,07,08,13,37,11.70
2011,07,08,13,38,11.30
2011,07,08,13,39,11.20
2011,07,08,13,40,17.60
2011,07,08,13,41,12.20
2011,07,08,13,42,13.70
2011,07,08,13,43,10.80
2011,07,08,13,44,9.70
2011,07,08,13,45,5.70
2011,07,08,13,46,11.50
2011,07,08,13,47,10.60
2011,07,08,13,48,7.90
2011,07,08,13,49,8.60
2011,07,08,13,50,8.90
2011,07,08,13,51,8.40
2011,07,08,13,52,6.30
2011,07,08,13,53,15.50
2011,07,08,13,54,11.90
2011,07,08,13,55,15.10
2011,07,08,13,56,12.70
2011,07,08,13,57,13.50
2011,07,08,13,58,17.40
2011,07,08,13,59,10.90
2011,07,08,14,00,10.80
2011,07,08,14,01,12.80
2011,07,08,14,02,17.30
2011,07,08,14,03,15.10
2011,07,08,14,04,14.90
2011,07,08,14,05,14.10
2011,07,08,14,06,16.90
2011,07,08,14,07,9.60
2011,07,08,14,08,9.30
2011,07,08,14,09,7.10
2011,07,08,14,10,10.50
2011,07,08,14,11,14.10
2011,07,08,14,12,9.90
2011,07,08,14,13,19.10
2011,07,08,14,14,18.60
2011,07,08,14,15,15.60
2011,07,08,14,16,14.10
2011,07,08,14,17,14.50
2011,07,08,14,18,16.30
2011,07,08,14,19,11.70
2011,07,08,14,20,10.20
2011,07,08,14,21,13.00
2011,07,08,14,22,10.50
2011,07,08,14,23,9.10
2011,07,08,14,24,14.30
2011,07,08,14,25,20.00
2011,07,08,14,26,19.00
2011,07,08,14,27,20.30
2011,07,08,14,28,17.80
2011,07,08,14,29,13.20
2011,07,08,14,30,9.30
2011,07,08,14,31,7.10
2011,07,08,14,32,19.90
2011,07,08,14,33,14.90
2011,07,08,14,34,15.20
2011,07,08,14,35,17.50
2011,07,08,14,36,11.30
2011,07,08,14,37,16.30
2011,07,08,14,38,14.30
2011,07,08,14,39,9.20
2011,07,08,14,40,9.20
2011,07,08,14,41,13.00
2011,07,08,14,42,5.80
2011,07,08,14,43,3.80
2011,07,08,14,44,8.20
2011,07,08,14,45,10.90
2011,07,08,14,46,11.40
2011,07,08,14,47,7.50
2011,07,08,14,48,7.00
2011,07,08,14,49,11.80
2011,07,08,14,50,7.70
2011,07,08,14,51,6.10
2011,07,08,14,52,4.90
2011,07,08,14,53,4.90
2011,07,08,14,54,4.60
2011,07,08,14,55,4.10
2011,07,08,14,56,4.30
2011,07,08,14,57,5.50
2011,07,08,14,58,4.60
2011,07,08,14,59,6.70
2011,07,08,15,00,5.10
2011,07,08,15,01,5.00
2011,07,08,15,02,3.50
2011,07,08,15,03,5.50
2011,07,08,15,04,3.40
2011,07,08,15,05,2.70
2011,07,08,15,06,0.60
2011,07,08,15,07,2.00
2011,07,08,15,08,3.70
2011,07,08,15,09,4.00
2011,07,08,15,10,3.40
2011,07,08,15,11,3.90
2011,07,08,15,12,6.40
2011,07,08,15,13,1.80
2011,07,08,15,14,3.60
2011,07,08,15,15,3.90
2011,07,08,15,16,7.50
2011,07,08,15,17,2.20
2011,07,08,15,18,1.60
2011,07,08,15,19,3.60
2011,07,08,15,20,6.70
2011,07,08,15,21,2.50
2011,07,08,15,22,8.60
2011,07,08,15,23,3.90
2011,07,08,15,24,1.50
2011,07,08,15,25,2.50
2011,07,08,15,26,3.50
2011,07,08,15,27,7.70
2011,07,08,15,28,4.30
2011,07,08,15,29,3.80
2011,07,08,15,30,4.30
2011,07,08,15,31,3.00
2011,07,08,15,32,3.90
2011,07,08,15,33,1.10
2011,07,08,15,34,5.30
2011,07,08,15,35,1.80
2011,07,08,15,36,1.80
2011,07,08,15,37,3.10
2011,07,08,15,38,3.30
2011,07,08,15,39,3.50
2011,07,08,15,40,3.30
2011,07,08,15,41,3.70
2011,07,08,15,42,5.90
2011,07,08,15,43,6.40
2011,07,08,15,44,5.30
2011,07,08,15,45,6.10
2011,07,08,15,46,4.20
2011,07,08,15,47,4.70
2011,07,08,15,48,6.30
2011,07,08,15,49,5.30
2011,07,08,15,50,6.40
2011,07,08,15,51,6.60
2011,07,08,15,52,5.50
2011,07,08,15,53,9.50
2011,07,08,15,54,4.60
2011,07,08,15,55,5.60
2011,07,08,15,56,1.20
2011,07,08,15,57,1.70
2011,07,08,15,58,1.10
2011,07,08,15,59,1.60
2011,07,08,16,00,2.10
2011,07,08,16,01,2.00
2011,07,08,16,02,5.60
2011,07,08,16,03,2.80
2011,07,08,16,04,2.70
2011,07,08,16,05,5.50
2011,07,08,16,06,4.00
2011,07,08,16,07,2.40
2011,07,08,16,08,1.40
2011,07,08,16,09,1.80
2011,07,08,16,10,1.90
2011,07,08,16,11,0.30
2011,07,08,16,12,0.20
2011,07,08,16,13,0.30
2011,07,08,16,14,0.00
2011,07,08,16,15,0.00
2011,07,08,16,16,0.70
2011,07,08,16,17,1.60
2011,07,08,16,18,1.90
2011,07,08,16,19,0.30
2011,07,08,16,20,0.40
2011,07,08,16,21,1.40
2011,07,08,16,22,5.30
2011,07,08,16,23,3.60
2011,07,08,16,24,4.90
2011,07,08,16,25,3.50
2011,07,08,16,26,2.20
2011,07,08,16,27,0.40
2011,07,08,16,28,1.70
2011,07,08,16,29,4.80
2011,07,08,16,30,3.90
2011,07,08,16,31,0.10
2011,07,08,16,32,0.30
2011,07,08,16,33,0.60
2011,07,08,16,34,1.90
2011,07,08,16,35,2.10
2011,07,08,16,36,1.40
2011,07,08,16,37,4.00
2011,07,08,16,38,0.30
2011,07,08,16,39,1.10
2011,07,08,16,40,1.40
2011,07,08,16,41,3.50
2011,07,08,16,42,2.40
2011,07,08,16,43,1.70
2011,07,08,16,44,1.90
2011,07,08,16,45,1.00
2011,07,08,16,46,0.30
2011,07,08,16,47,0.60
2011,07,08,16,48,1.90
2011,07,08,16,49,1.40
2011,07,08,16,50,2.10
2011,07,08,16,51,1.20
2011,07,08,16,52,0.30
2011,07,08,16,53,0.00
2011,07,08,16,54,1.20
2011,07,08,16,55,0.90
2011,07,08,16,56,0.00
2011,07,08,16,57,0.30
2011,07,08,16,58,6.10
2011,07,08,16,59,4.80
2011,07,08,17,00,1.20
2011,07,08,17,01,2.70
2011,07,08,17,02,1.80
2011,07,08,17,03,2.70
2011,07,08,17,04,2.60
2011,07,08,17,05,0.40
2011,07,08,17,06,1.30
2011,07,08,17,07,1.90
2011,07,08,17,08,3.10
2011,07,08,17,09,7.60
2011,07,08,17,10,10.50
2011,07,08,17,11,16.00
2011,07,08,17,12,15.10
2011,07,08,17,13,15.20
2011,07,08,17,14,14.10
2011,07,08,17,15,15.80
2011,07,08,17,16,15.50
2011,07,08,17,17,12.50
2011,07,08,17,18,17.50
2011,07,08,17,19,19.60
2011,07,08,17,20,12.20
2011,07,08,17,21,12.80
2011,07,08,17,22,15.60
2011,07,08,17,23,22.20
2011,07,08,17,24,13.10
2011,07,08,17,25,15.20
2011,07,08,17,26,12.50
2011,07,08,17,27,16.70
2011,07,08,17,28,17.50
2011,07,08,17,29,14.70
2011,07,08,17,30,12.30
2011,07,08,17,31,12.20
2011,07,08,17,32,12.50
2011,07,08,17,33,11.80
2011,07,08,17,34,12.60
2011,07,08,17,35,17.10
2011,07,08,17,36,10.90
2011,07,08,17,37,12.30
2011,07,08,17,38,7.10
2011,07,08,17,39,7.90
2011,07,08,17,40,8.10